TimePDT,TemperatureF,Dew PointF,Humidity,Sea Level PressureIn,VisibilityMPH,Wind Direction,Wind SpeedMPH,Gust SpeedMPH,PrecipitationIn,Events,Conditions,WindDirDegrees,DateUTC
12:58 AM,47.8,45.9,93,29.94,10.0,NNE,12.7,-,N/A,,Clear,20,2013-10-28 07:58:00
1:58 AM,48.7,45.0,87,29.94,10.0,North,6.9,-,N/A,,Mostly Cloudy,10,2013-10-28 08:58:00
2:58 AM,50.5,42.4,74,29.94,10.0,NNE,8.1,-,N/A,,Overcast,20,2013-10-28 09:58:00
3:58 AM,50.7,41.5,71,29.93,10.0,NNE,6.9,-,N/A,,Overcast,30,2013-10-28 10:58:00
4:58 AM,50.5,41.2,70,29.93,10.0,Variable,6.9,-,N/A,,Overcast,0,2013-10-28 11:58:00
5:58 AM,50.2,40.3,69,29.93,10.0,NE,8.1,-,N/A,,Mostly Cloudy,40,2013-10-28 12:58:00
6:58 AM,49.3,39.9,70,29.92,10.0,NNE,10.4,-,N/A,,Clear,30,2013-10-28 13:58:00
7:58 AM,49.1,39.0,68,29.93,10.0,NNE,11.5,-,N/A,,Clear,30,2013-10-28 14:58:00
8:58 AM,50.9,37.9,61,29.94,10.0,NNE,11.5,-,N/A,,Clear,30,2013-10-28 15:58:00
9:58 AM,52.5,37.9,58,29.94,10.0,NNE,15.0,24.2,N/A,,Clear,30,2013-10-28 16:58:00
10:58 AM,53.8,37.8,55,29.93,10.0,NNE,12.7,20.7,N/A,,Clear,30,2013-10-28 17:58:00
11:58 AM,55.4,36.3,49,29.93,10.0,NNE,18.4,26.5,N/A,,Clear,30,2013-10-28 18:58:00
12:58 PM,56.1,35.6,46,29.91,10.0,NNE,19.6,24.2,N/A,,Clear,20,2013-10-28 19:58:00
1:58 PM,56.7,34.0,42,29.91,10.0,NNE,21.9,31.1,N/A,,Clear,30,2013-10-28 20:58:00
2:58 PM,56.7,32.5,40,29.89,10.0,NNE,23.0,28.8,N/A,,Clear,30,2013-10-28 21:58:00
3:58 PM,56.1,34.0,43,29.91,10.0,NNE,17.3,-,N/A,,Clear,20,2013-10-28 22:58:00
4:58 PM,55.0,32.9,43,29.91,10.0,NNE,12.7,-,N/A,,Clear,30,2013-10-28 23:58:00
5:58 PM,52.5,32.9,47,29.91,10.0,NE,11.5,18.4,N/A,,Clear,40,2013-10-29 00:58:00
6:58 PM,51.6,32.2,47,29.93,10.0,NE,6.9,20.7,N/A,,Clear,40,2013-10-29 01:58:00
7:58 PM,50.9,31.6,48,29.94,10.0,NE,9.2,-,N/A,,Clear,40,2013-10-29 02:58:00
8:58 PM,50.4,32.2,50,29.95,10.0,NE,8.1,-,N/A,,Clear,40,2013-10-29 03:58:00
9:58 PM,50.2,31.8,49,29.96,10.0,SE,2.3,-,N/A,,Clear,130,2013-10-29 04:58:00
10:58 PM,37.9,33.1,83,29.97,10.0,ESE,3.5,-,N/A,,Clear,110,2013-10-29 05:58:00
11:58 PM,35.6,32.7,89,29.97,10.0,South,4.6,-,N/A,,Clear,180,2013-10-29 06:58:00